User: anonymous   Login
Location: Unspecified
(0.0000°N, 0.0000°E)
Time: 01:50:14
(UTC+00:00)
Language:

Nadezhda 6 - Orbit

View from above orbital plane
View from above orbital plane
View from above satellite
View from above satellite

Ground track
Ground track

The orbit data is extracted from the following two-line orbital elements,

1 26384U 00033A   24111.86053048  .00002945  00000-0  51421-3 0  9998
2 26384  97.7691 110.2985 0013719   2.1802 357.9462 14.68588539273278
Epoch (UTC): 20 April 2024 20:39:09
Eccentricity: 0.0013719
inclination: 97.7691°
perigee height: 656 km
apogee height: 675 km
right ascension of ascending node: 110.2985°
argument of perigee: 2.1802°
revolutions per day: 14.68588539
mean anomaly at epoch: 357.9462°
orbit number at epoch: 27327

The dashed part of the orbit path shows where the satellite is in the earth's shadow,  

DLR